Weather History for Jefferson City, MO

Change the Weather History Date:

Wednesday, November 21, 2012

  Actual Average Record
Temperature  
Mean Temperature 50 °F -  
Max Temperature 68 °F 54 °F 75 °F (2010)
Min Temperature 33 °F 30 °F 7 °F (1937)
Degree Days  
Heating Degree Days 14    
Moisture  
Dew Point 37 °F    
Average Humidity 79    
Maximum Humidity 96    
Minimum Humidity 34    
Precipitation  
Precipitation 0.01 in - - ()
Sea Level Pressure  
Sea Level Pressure 30.20 in    
Wind  
Wind Speed 2 mph (ESE)    
Max Wind Speed 6 mph    
Max Gust Speed -    
Visibility 4 miles    
Events Fog    
Averages and records for this station are not official NWS values.
T = Trace of Precipitation, MM = Missing Value Source: NWS Daily Summary

Daily Weather History Graph

Daily Weather History Graph

Search for Another Location

Airport:

Trip Planner

Search our weather history database for the weather conditions in past years. The results will help you decide how hot, cold, wet, or windy it might be!

Date:

Astronomy

Nov. 21, 2012 Rise Set
Actual Time 6:57 AM CST 4:51 PM CST
Civil Twilight 6:28 AM CST 5:20 PM CST
Nautical Twilight 5:56 AM CST 5:52 PM CST
Astronomical Twilight 5:24 AM CST 6:24 PM CST
Moon 1:04 PM CST (11/21) 12:21 AM CST (11/21)
Length of Visible Light 10h 51m
Length of Day
9h 53m
First Quarter, 62% of the Moon is Illuminated
Nov 21
First Quarter
Nov 28
Full
Dec 6
Last Quarter
Dec 13
New
Dec 19
First Quarter

Hourly Weather History & Observations

Time (CST) Temp. Windchill Dew Point Humidity Pressure Visibility Wind Dir Wind Speed Gust Speed Precip Events Conditions
12:09 AM 37.4 °F 34.9 °F 35.6 °F 93% 30.23 in 0.2 mi SE 3.5 mph - N/A Fog Fog
12:21 AM 35.6 °F - 33.8 °F 93% 30.23 in 0.2 mi Calm Calm - N/A Fog Fog
12:33 AM 35.6 °F - 33.8 °F 93% 30.23 in 0.2 mi Calm Calm - N/A Fog Fog
12:53 AM 37.0 °F - 35.1 °F 93% 30.20 in 0.2 mi Calm Calm - N/A Fog Fog
1:50 AM 35.6 °F - 33.8 °F 93% 30.24 in 0.5 mi Calm Calm - 0.01 in Fog Fog
1:53 AM 36.0 °F - 34.0 °F 93% 30.21 in 0.5 mi Calm Calm - 0.01 in Fog Fog
2:01 AM 35.6 °F - 33.8 °F 93% 30.24 in 0.2 mi Calm Calm - N/A Fog Fog
2:53 AM 35.1 °F - 33.1 °F 92% 30.21 in 0.2 mi Calm Calm - N/A Fog Fog
3:36 AM 35.6 °F - 32.0 °F 87% 30.23 in 0.5 mi Calm Calm - N/A Fog Fog
3:45 AM 35.6 °F - 32.0 °F 87% 30.23 in 0.2 mi Calm Calm - N/A Fog Fog
3:53 AM 35.1 °F - 33.1 °F 92% 30.21 in 0.2 mi Calm Calm - N/A Fog Fog
4:53 AM 33.1 °F - 32.0 °F 96% 30.22 in 0.2 mi Calm Calm - N/A Fog Fog
5:53 AM 33.1 °F - 32.0 °F 96% 30.23 in 0.2 mi Calm Calm - N/A Fog Fog
6:26 AM 33.8 °F - 32.0 °F 93% 30.26 in 0.2 mi Calm Calm - N/A Fog Fog
6:50 AM 35.6 °F - 33.8 °F 93% 30.27 in 0.2 mi Calm Calm - N/A Fog Fog
6:53 AM 35.1 °F - 33.1 °F 92% 30.25 in 0.2 mi Calm Calm - N/A Fog Fog
7:53 AM 35.1 °F 31.0 °F 33.1 °F 92% 30.25 in 0.2 mi ESE 4.6 mph - N/A Fog Fog
8:53 AM 37.0 °F 34.5 °F 35.1 °F 93% 30.26 in 0.2 mi SE 3.5 mph - N/A Fog Fog
9:53 AM 41.0 °F 37.1 °F 39.0 °F 93% 30.26 in 0.2 mi East 5.8 mph - N/A Fog Fog
10:11 AM 42.8 °F 41.1 °F 41.0 °F 93% 30.28 in 0.5 mi ESE 3.5 mph - N/A Fog Fog
10:17 AM 44.6 °F 43.1 °F 42.8 °F 93% 30.28 in 2.0 mi ESE 3.5 mph - N/A   Mostly Cloudy
10:23 AM 44.6 °F 42.2 °F 42.8 °F 93% 30.28 in 3.0 mi Variable 4.6 mph - N/A   Scattered Clouds
10:26 AM 46.4 °F 43.5 °F 42.8 °F 87% 30.28 in 2.0 mi ESE 5.8 mph - N/A   Scattered Clouds
10:53 AM 48.9 °F - 44.1 °F 83% 30.25 in 2.0 mi ESE 5.8 mph - N/A   Haze
10:56 AM 48.2 °F - 44.6 °F 87% 30.26 in 5.0 mi ESE 5.8 mph - N/A   Haze
11:53 AM 57.0 °F - 46.9 °F 69% 30.22 in 8.0 mi Variable 4.6 mph - N/A   Clear
12:53 PM 64.9 °F - 44.1 °F 47% 30.18 in 10.0 mi South 4.6 mph - N/A   Clear
1:53 PM 66.9 °F - 39.0 °F 36% 30.15 in 10.0 mi Variable 4.6 mph - N/A   Clear
2:53 PM 68.0 °F - 39.0 °F 35% 30.13 in 10.0 mi South 5.8 mph - N/A   Clear
3:53 PM 66.9 °F - 37.9 °F 34% 30.12 in 10.0 mi SSE 5.8 mph - N/A   Clear
4:53 PM 63.0 °F - 37.0 °F 38% 30.12 in 10.0 mi ESE 3.5 mph - N/A   Clear
5:53 PM 59.0 °F - 37.9 °F 46% 30.11 in 10.0 mi ESE 5.8 mph - N/A   Clear
6:53 PM 51.1 °F - 37.9 °F 61% 30.10 in 10.0 mi ESE 3.5 mph - N/A   Clear
7:53 PM 45.0 °F - 37.0 °F 74% 30.11 in 10.0 mi Calm Calm - N/A   Clear
8:53 PM 48.0 °F - 37.0 °F 66% 30.11 in 10.0 mi ESE 5.8 mph - N/A   Clear
9:53 PM 48.0 °F - 35.1 °F 61% 30.09 in 10.0 mi East 4.6 mph - N/A   Clear
10:53 PM 46.0 °F 43.9 °F 35.1 °F 66% 30.08 in 10.0 mi East 4.6 mph - N/A   Clear
11:53 PM 45.0 °F 43.5 °F 35.1 °F 68% 30.08 in 10.0 mi East 3.5 mph - N/A   Clear